When you browse on this site, cookies collect data to enhance your experience and personalize the content and advertising you see.
Visit our Privacy Policy to learn more. By continuing to use the site, you agree to this use of cookies and data.
  • In Spain
  • List of Countries
  • For 7 days
  • Water Temperature
  • Satellite Maps
  • Weather Map
  • Weather Widgets
  • user-avatar
    Login

    Hourly Weather Bangi

    Today, 22 April, Monday

    Time Temperature Precipitation Wind Pressure Humidity
    00:00 +28°C° 0 mm 1 mps 725 mmHg 70%
    01:00 +28°C° 0 mm 1 mps 725 mmHg 73%
    02:00 +27°C° 0 mm 1 mps 725 mmHg 76%
    03:00 +27°C° 0 mm 1 mps 725 mmHg 79%
    04:00 +26°C° 0 mm 1 mps 725 mmHg 82%
    05:00 +27°C° 0.1 mm 2 mps 726 mmHg 81%
    06:00 +27°C° 0.1 mm 2 mps 726 mmHg 80%
    07:00 +28°C° 0.1 mm 3 mps 727 mmHg 79%
    08:00 +30°C° 0 mm 3 mps 727 mmHg 70%
    09:00 +33°C° 0 mm 3 mps 727 mmHg 61%
    10:00 +35°C° 0 mm 3 mps 727 mmHg 52%
    11:00 +37°C° 0 mm 2 mps 727 mmHg 45%
    12:00 +39°C° 0 mm 2 mps 726 mmHg 39%
    13:00 +41°C° 0 mm 1 mps 725 mmHg 32%
    14:00 +41°C° 0 mm 1 mps 725 mmHg 31%
    15:00 +41°C° 0 mm 1 mps 725 mmHg 30%
    16:00 +38°C° 0 mm 0 mps 724 mmHg 28%
    17:00 +36°C° 0 mm 0 mps 724 mmHg 33%
    18:00 +35°C° 0 mm 1 mps 725 mmHg 38%
    19:00 +33°C° 0 mm 1 mps 725 mmHg 42%
    20:00 +32°C° 0.3 mm 1 mps 725 mmHg 51%
    21:00 +31°C° 0.3 mm 1 mps 725 mmHg 59%
    22:00 +29°C° 0.3 mm 2 mps 726 mmHg 68%
    23:00 +29°C° 0 mm 2 mps 725 mmHg 70%

    Tomorrow, 23 April, Tuesday

    Time Temperature Precipitation Wind Pressure Humidity
    00:00 +28°C° 0 mm 1 mps 725 mmHg 72%
    01:00 +28°C° 0 mm 1 mps 725 mmHg 74%
    02:00 +27°C° 0 mm 1 mps 725 mmHg 76%
    03:00 +27°C° 0 mm 1 mps 725 mmHg 78%
    04:00 +27°C° 0 mm 1 mps 725 mmHg 80%
    05:00 +27°C° 0 mm 1 mps 725 mmHg 78%
    06:00 +28°C° 0 mm 1 mps 726 mmHg 77%
    07:00 +28°C° 0 mm 1 mps 727 mmHg 76%
    08:00 +31°C° 0 mm 2 mps 727 mmHg 66%
    09:00 +34°C° 0 mm 2 mps 727 mmHg 57%
    10:00 +37°C° 0 mm 2 mps 728 mmHg 47%
    11:00 +39°C° 0 mm 2 mps 727 mmHg 40%
    12:00 +41°C° 0 mm 1 mps 726 mmHg 34%
    13:00 +44°C° 0 mm 1 mps 726 mmHg 28%
    14:00 +42°C° 0 mm 1 mps 725 mmHg 29%
    15:00 +41°C° 0 mm 1 mps 725 mmHg 31%
    16:00 +39°C° 0 mm 1 mps 724 mmHg 32%
    17:00 +37°C° 0 mm 1 mps 724 mmHg 36%
    18:00 +35°C° 0 mm 1 mps 725 mmHg 40%
    19:00 +34°C° 0 mm 1 mps 725 mmHg 44%
    20:00 +33°C° 0 mm 1 mps 726 mmHg 46%
    21:00 +32°C° 0 mm 1 mps 726 mmHg 49%
    22:00 +31°C° 0 mm 1 mps 727 mmHg 52%
    23:00 +31°C° 0 mm 1 mps 726 mmHg 55%

    Day after tomorrow, 24 April, Wednesday

    Time Temperature Precipitation Wind Pressure Humidity
    00:00 +30°C° 0 mm 1 mps 726 mmHg 59%
    01:00 +29°C° 0 mm 1 mps 726 mmHg 62%
    02:00 +29°C° 0 mm 1 mps 725 mmHg 65%
    03:00 +28°C° 0 mm 1 mps 725 mmHg 67%
    04:00 +27°C° 0 mm 1 mps 725 mmHg 70%
    05:00 +28°C° 0 mm 1 mps 725 mmHg 69%
    06:00 +29°C° 0 mm 1 mps 726 mmHg 67%
    07:00 +29°C° 0 mm 2 mps 727 mmHg 66%
    08:00 +32°C° 0 mm 2 mps 727 mmHg 57%
    09:00 +36°C° 0 mm 2 mps 728 mmHg 48%
    10:00 +38°C° 0 mm 2 mps 728 mmHg 40%
    11:00 +41°C° 0 mm 1 mps 727 mmHg 35%
    12:00 +44°C° 0 mm 1 mps 727 mmHg 30%
    13:00 +43°C° 0 mm 0 mps 726 mmHg 25%
    14:00 +41°C° 0 mm 0 mps 725 mmHg 29%
    15:00 +41°C° 0 mm 1 mps 725 mmHg 33%
    16:00 +37°C° 0 mm 1 mps 724 mmHg 37%
    17:00 +36°C° 0 mm 1 mps 725 mmHg 40%
    18:00 +34°C° 0 mm 1 mps 725 mmHg 43%
    19:00 +33°C° 0 mm 1 mps 725 mmHg 46%
    20:00 +32°C° 0 mm 1 mps 726 mmHg 49%
    21:00 +31°C° 0 mm 1 mps 726 mmHg 52%
    22:00 +30°C° 0 mm 1 mps 727 mmHg 54%
    23:00 +30°C° 0 mm 1 mps 726 mmHg 56%

    25 April, Thursday

    Time Temperature Precipitation Wind Pressure Humidity
    00:00 +30°C° 0 mm 1 mps 726 mmHg 57%
    01:00 +29°C° 0 mm 1 mps 726 mmHg 59%
    02:00 +28°C° 0.1 mm 1 mps 726 mmHg 63%
    03:00 +27°C° 0.1 mm 1 mps 726 mmHg 68%
    04:00 +27°C° 0.1 mm 1 mps 726 mmHg 73%
    05:00 +27°C° 0.1 mm 1 mps 726 mmHg 71%
    06:00 +28°C° 0.1 mm 2 mps 727 mmHg 70%
    07:00 +29°C° 0.1 mm 2 mps 728 mmHg 68%
    08:00 +31°C° 0 mm 2 mps 728 mmHg 60%
    09:00 +34°C° 0 mm 3 mps 728 mmHg 52%
    10:00 +37°C° 0 mm 3 mps 728 mmHg 44%
    11:00 +39°C° 0 mm 2 mps 727 mmHg 39%
    12:00 +41°C° 0 mm 2 mps 727 mmHg 34%
    13:00 +42°C° 0 mm 2 mps 726 mmHg 29%
    14:00 +42°C° 0 mm 1 mps 725 mmHg 29%
    15:00 +42°C° 0 mm 1 mps 725 mmHg 29%
    16:00 +38°C° 0 mm 0 mps 724 mmHg 29%
    17:00 +36°C° 0 mm 0 mps 725 mmHg 33%
    18:00 +36°C° 0 mm 1 mps 725 mmHg 37%
    19:00 +34°C° 0 mm 1 mps 726 mmHg 41%
    20:00 +33°C° 0.1 mm 1 mps 726 mmHg 46%
    21:00 +31°C° 0.1 mm 1 mps 726 mmHg 52%
    22:00 +30°C° 0.1 mm 1 mps 727 mmHg 57%
    23:00 +29°C° 0 mm 1 mps 726 mmHg 61%

    26 April, Friday

    Time Temperature Precipitation Wind Pressure Humidity
    00:00 +29°C° 0 mm 1 mps 726 mmHg 64%
    01:00 +28°C° 0 mm 1 mps 725 mmHg 67%
    02:00 +28°C° 0 mm 1 mps 725 mmHg 69%
    03:00 +27°C° 0 mm 1 mps 725 mmHg 71%
    04:00 +27°C° 0 mm 1 mps 725 mmHg 73%
    05:00 +28°C° 0 mm 1 mps 726 mmHg 71%
    06:00 +29°C° 0 mm 1 mps 726 mmHg 69%
    07:00 +29°C° 0 mm 1 mps 727 mmHg 67%
    08:00 +32°C° 0 mm 2 mps 727 mmHg 58%
    09:00 +36°C° 0 mm 2 mps 727 mmHg 49%
    10:00 +39°C° 0 mm 3 mps 727 mmHg 41%
    11:00 +40°C° 0 mm 2 mps 726 mmHg 36%
    12:00 +42°C° 0 mm 2 mps 726 mmHg 31%
    13:00 +43°C° 0 mm 2 mps 725 mmHg 27%
    14:00 +42°C° 0 mm 1 mps 724 mmHg 30%
    15:00 +40°C° 0 mm 1 mps 724 mmHg 33%
    16:00 +39°C° 0 mm 1 mps 723 mmHg 37%
    17:00 +36°C° 0.9 mm 1 mps 724 mmHg 45%
    18:00 +34°C° 0.9 mm 2 mps 724 mmHg 54%
    19:00 +31°C° 0.9 mm 2 mps 724 mmHg 63%
    20:00 +30°C° 7.3 mm 2 mps 725 mmHg 72%
    21:00 +29°C° 7.3 mm 2 mps 725 mmHg 81%
    22:00 +27°C° 7.3 mm 2 mps 726 mmHg 89%
    23:00 +27°C° 2.4 mm 2 mps 725 mmHg 89%

    27 April, Saturday

    Time Temperature Precipitation Wind Pressure Humidity
    00:00 +26°C° 2.4 mm 2 mps 725 mmHg 89%
    01:00 +26°C° 2.4 mm 2 mps 725 mmHg 89%
    02:00 +25°C° 0.9 mm 2 mps 725 mmHg 91%
    03:00 +25°C° 0.9 mm 2 mps 725 mmHg 93%
    04:00 +25°C° 0.9 mm 1 mps 725 mmHg 95%
    05:00 +25°C° 0.1 mm 1 mps 726 mmHg 94%
    06:00 +26°C° 0.1 mm 2 mps 726 mmHg 93%
    07:00 +26°C° 0.1 mm 2 mps 727 mmHg 92%
    08:00 +28°C° 0 mm 2 mps 727 mmHg 84%
    09:00 +29°C° 0 mm 2 mps 728 mmHg 75%
    10:00 +31°C° 0 mm 2 mps 728 mmHg 67%
    11:00 +32°C° 0 mm 2 mps 727 mmHg 60%
    12:00 +35°C° 0 mm 2 mps 726 mmHg 53%
    13:00 +37°C° 0 mm 2 mps 726 mmHg 46%
    14:00 +37°C° 0 mm 2 mps 725 mmHg 44%
    15:00 +36°C° 0 mm 1 mps 725 mmHg 43%
    16:00 +37°C° 0 mm 1 mps 725 mmHg 42%
    17:00 +35°C° 0 mm 1 mps 725 mmHg 47%
    18:00 +33°C° 0 mm 1 mps 725 mmHg 52%
    19:00 +31°C° 0 mm 1 mps 725 mmHg 58%
    20:00 +30°C° 0 mm 1 mps 726 mmHg 61%
    21:00 +29°C° 0 mm 1 mps 726 mmHg 64%
    22:00 +28°C° 0 mm 1 mps 726 mmHg 67%
    23:00 +28°C° 0 mm 1 mps 726 mmHg 69%
    Show more